Regional Weather Roundup
Issued by NWS Boston, MA

Home | Current Version | Previous Version | Text Only | Print | Product List | Glossary On
Versions: 1 2 3 4 5 6 7 8 9 10 11 12 13 14 15 16 17 18 19 20 21 22 23 24 25 26 27 28 29 30 31 32 33 34 35 36 37 38 39 40 41 42 43 44 45 46 47 48 49 50
000
ASUS41 KBOX 061910
RWRBOX

REGIONAL WEATHER ROUNDUP
NATIONAL WEATHER SERVICE TAUNTON MA
300 PM EDT WED MAY 06 2015

NOTE:  "FAIR" INDICATES FEW OR NO CLOUDS BELOW 12,000 FEET WITH NO
SIGNIFICANT WEATHER AND/OR OBSTRUCTIONS TO VISIBILITY.  THE FOLLOWING
OBSERVATION LOCATIONS DO NOT REPORT PRESENT WEATHER...PROVINCETOWN...
SMITHFIELD...BLOCK ISLAND...KEENE...AND OXFORD.

MAZALL-062000-
EASTERN MASSACHUSETTS

CITY           SKY/WX    TMP DP  RH WIND       PRES   REMARKS
BOSTON         MOSUNNY   70  37  29 SE12      30.22F
BEVERLY        MOSUNNY   69  34  27 SE12      30.21F
LAWRENCE       SUNNY     76  34  21 SW10      30.21F
BEDFORD        SUNNY     74  30  19 S10       30.19F
BLUE HILL        N/A     72  30  21 CALM      30.22F
NORWOOD        MOSUNNY   73  30  20 SW7       30.22F
MARSHFIELD     MOSUNNY   68  34  28 SE9       30.25F
PLYMOUTH       PTSUNNY   70  31  23 E7        30.24F
TAUNTON        PTSUNNY   72  32  23 E6        30.23F
NEW BEDFORD    CLOUDY    70  34  26 S12       30.23F
$$

MAZALL-062000-
CAPE COD AND THE ISLANDS

CITY           SKY/WX    TMP DP  RH WIND       PRES   REMARKS
FALMOUTH       MOSUNNY   72  36  26 SE3       30.22F
HYANNIS        PTSUNNY   66  33  29 SE8       30.23F
CHATHAM        PTSUNNY   62  35  36 SE8       30.26F
PROVINCETOWN   PTSUNNY   64  43  45 NW6       30.25F
NANTUCKET      CLOUDY    64  32  30 E12       30.25F
MARTHAS VNYRD  CLOUDY   N/A N/A N/A E12       30.24F
$$

MAZALL-062000-
CENTRAL AND WESTERN MASSACHUSETTS

CITY           SKY/WX    TMP DP  RH WIND       PRES   REMARKS
WORCESTER      MOSUNNY   71  28  20 MISG      30.23F
FITCHBURG      SUNNY     77  31  18 S12       30.21F
ORANGE         SUNNY     75  28  17 S13       30.21F
SPRINGFIELD    MOSUNNY   74  32  20 SW8       30.22F
WESTFIELD      MOSUNNY   75  31  19 SW9       30.23F
NORTH ADAMS    SUNNY     76  31  19 VRB5      30.20F
PITTSFIELD     SUNNY     71  31  22 SW8       30.22F
$$

RIZALL-062000-
RHODE ISLAND

CITY           SKY/WX    TMP DP  RH WIND       PRES   REMARKS
PROVIDENCE     CLOUDY    70  32  24 S8        30.24F
NEWPORT        CLOUDY    67  35  30 SE9       30.25F
BLOCK ISLAND   PTSUNNY   57  39  51 E8        30.27S
SMITHFIELD     PTSUNNY   70  30  23 S7        30.24F
WESTERLY       CLOUDY    69  31  24 E13G18    30.26F
$$

CTZALL-062000-
CONNECTICUT

CITY           SKY/WX    TMP DP  RH WIND       PRES   REMARKS
BRADLEY INTL   PTSUNNY   74  31  20 S5        30.24F
HARTFORD       CLOUDY    71  34  25 SW7       30.24F
BRIDGEPORT     CLOUDY    64  42  44 E9        30.27F
DANBURY        CLOUDY    67  36  31 CALM      30.27F
GROTON         CLOUDY    67  33  28 SE16      30.25F
NEW HAVEN      CLOUDY    63  40  42 SE10      30.27S
CHESTER        NOT AVBL
MERIDEN        CLOUDY    70  34  26 SW3       30.26F
WILLIMANTIC    CLOUDY    72  31  22 NW3       30.24F
OXFORD         PTSUNNY   64  36  34 CALM      30.28S
$$

MEZ002-015-021-024-NHZ003-005-008-011-012-014-VTZ005-008-062000-
NORTHERN NEW ENGLAND

CITY           SKY/WX    TMP DP  RH WIND       PRES   REMARKS
PORTLAND ME    MOSUNNY   68  34  28 S20       30.19F
BANGOR ME      MOSUNNY   73  32  22 NW12G20   30.10F
CONCORD NH     SUNNY     77  26  15 SW7G16    30.18F
MANCHESTER NH  MOSUNNY   76  27  16 W6        30.17F
NASHUA NH      SUNNY     76  28  17 VRB5      30.20F
PORTSMOUTH NH  MOSUNNY   71  33  25 SE14      30.17F
JAFFREY NH     SUNNY     73  28  18 S9        30.22F
KEENE NH       SUNNY     73  28  19 E5        30.21F
BURLINGTON VT  SUNNY     77  28  16 N9        30.20F
MT. WASHINGTON MOSUNNY   41  25  52 NW32G44     N/A  WCI  29
$$

NYZ052-076-062000-
EASTERN NEW YORK

CITY           SKY/WX    TMP DP  RH WIND       PRES   REMARKS
ALBANY         MOSUNNY   76  25  15 CALM      30.22F
NEW YORK CITY  CLOUDY    65  35  33 NE9       30.26F
$$

ANZALL-062000-
MARINE OBSERVATIONS

STATION/POSITION TIME  TEMP    WIND        PRES    VSBY  WAVE
                       AIR SEA DIR/SP/G                  HT/PER
                 (UTC) (F)     (DEG/KT/KT) (MB)    (MI)  (FT/S)
BOSTON BUOY      1850   55 50  160/  8/ 10   N/A           1/11
BUZZARDS BAY     1800           80/ 11/ 11   N/A
NANTUCKET SOUND  1850   52 51  100/  6/  6   N/A           1/ 3
MASS BAY-STELLWA 1804   53 51  170/  6/  8   N/A    1 7/8  1/11
ISLE OF SHOALS   1800   55     170/ 20/ 21   N/A
S OF BLOCK IS    1808      48                N/A           3/ 7
$$

......................KEY.........................
  SKY/WX - SKY CONDITION/PRESENT WEATHER
  TMP    - TEMPERATURE IN FAHRENHEIT
  DWPT   - DEWPOINT IN FAHRENHEIT
  RH     - RELATIVE HUMIDITY IN PERCENT
  WIND   - DIRECTION AND SPEED IN MPH
  PRES   - MEAN SEA LEVEL PRESSURE IN INCHES OF HG
  WCI    - WIND CHILL INDEX
  VSB    - VISIBILITY IN MILES
  HX     - HEAT INDEX
  TC     - TEMPERATURE IN CELSIUS
  VRB    - VARIABLE WIND DIRECTION
  N/A    - NOT AVAILABLE



USA.gov is the U.S. government's official web portal to all federal, state and local government web resources and services.